Weather History for KSLC - August, 2014

Change the Weather History Date:

Wednesday, August 13, 2014

  Actual Average Record
Temperature  
Mean Temperature 74 °F 78 °F  
Max Temperature 85 °F 92 °F 102 °F (1937)
Min Temperature 63 °F 64 °F 50 °F (1948)
Degree Days  
Heating Degree Days 0 0  
Month to date heating degree days 0 0  
Since 1 June heating degree days 39 48  
Since 1 July heating degree days 0 2  
Cooling Degree Days 9 13  
Month to date cooling degree days 153 182  
Year to date cooling degree days 910 844  
Since 1 June cooling degree days 848 794  
Growing Degree Days 24 (Base 50)    
Moisture  
Dew Point 56 °F    
Average Humidity 58    
Maximum Humidity 87    
Minimum Humidity 29    
Precipitation  
Precipitation 0.00 in 0.02 in 1.23 in (1923)
Month to date precipitation 0.71 0.27  
Year to date precipitation 8.88 10.09  
Snow  
Snow 0.00 in 0.00 in - ()
Month to date snowfall 0.0 0.0  
Since 1 July snowfall 0.0 0.0  
Snow Depth 0.00 in    
Sea Level Pressure  
Sea Level Pressure 29.94 in    
Wind  
Wind Speed 8 mph (South)    
Max Wind Speed 24 mph    
Max Gust Speed 30 mph    
Visibility 10 miles    
Events      
T = Trace of Precipitation, MM = Missing Value Source: NWS Daily Summary

Daily Weather History Graph

Daily Weather History Graph

Search for Another Location

Airport or City:

Trip Planner

Search our weather history database for the weather conditions in past years. The results will help you decide how hot, cold, wet, or windy it might be!

Date:

Astronomy

Aug. 13, 2014 Rise Set
Actual Time 6:36 AM MDT 8:28 PM MDT
Civil Twilight 6:06 AM MDT 8:58 PM MDT
Nautical Twilight 5:30 AM MDT 9:33 PM MDT
Astronomical Twilight 4:51 AM MDT 10:12 PM MDT
Moon 10:14 PM MDT (8/13) 10:10 AM MDT (8/13)
Length of Visible Light 14h 51m
Length of Day
13h 52m
Waning Gibbous, 87% of the Moon is Illuminated
Aug 13
Waning Gibbous
Aug 17
Last Quarter
Aug 25
New
Sep 2
First Quarter
Sep 8
Full

Hourly Weather History & Observations

Time (MDT) Temp. Dew Point Humidity Pressure Visibility Wind Dir Wind Speed Gust Speed Precip Events Conditions
12:53 AM 66.9 °F 59.0 °F 76% 29.97 in 10.0 mi East 6.9 mph - N/A   Scattered Clouds
1:53 AM 64.9 °F 60.1 °F 84% 29.97 in 10.0 mi SSW 3.5 mph - N/A   Scattered Clouds
2:53 AM 66.0 °F 60.1 °F 81% 29.95 in 10.0 mi Calm Calm - N/A   Scattered Clouds
3:53 AM 66.2 °F 60.8 °F 83% 30.11 in 10.0 mi WNW 3.5 mph - N/A   Scattered Clouds
4:53 AM 66.2 °F 60.8 °F 83% 30.10 in 10.0 mi Calm Calm - N/A   Scattered Clouds
6:53 AM 64.4 °F 59.0 °F 83% 30.13 in 10.0 mi Calm Calm - N/A   Mostly Cloudy
8:53 AM 68.0 °F 59.0 °F 73% 30.13 in 10.0 mi SSE 5.8 mph - N/A   Mostly Cloudy
9:53 AM 72.0 °F 57.9 °F 61% 29.97 in 10.0 mi South 9.2 mph - N/A   Mostly Cloudy
10:53 AM 75.9 °F 55.0 °F 48% 29.97 in 10.0 mi SE 6.9 mph - N/A   Mostly Cloudy
11:53 AM 79.0 °F 57.9 °F 48% 29.95 in 10.0 mi Variable 5.8 mph - N/A   Mostly Cloudy
12:53 PM 84.0 °F 51.1 °F 32% 29.93 in 10.0 mi South 15.0 mph 23.0 mph N/A   Mostly Cloudy
1:53 PM 82.4 °F 48.2 °F 30% 30.06 in 10.0 mi SSE 23.0 mph 27.6 mph N/A   Mostly Cloudy
2:53 PM 84.0 °F 48.9 °F 29% 29.89 in 10.0 mi South 17.3 mph 28.8 mph N/A   Mostly Cloudy
3:53 PM 82.0 °F 52.0 °F 35% 29.88 in 10.0 mi South 20.7 mph 28.8 mph N/A   Mostly Cloudy
4:53 PM 81.0 °F 52.0 °F 36% 29.87 in 10.0 mi South 15.0 mph - N/A   Mostly Cloudy
5:53 PM 81.0 °F 51.1 °F 35% 29.86 in 10.0 mi South 11.5 mph - N/A   Mostly Cloudy
6:53 PM 80.1 °F 52.0 °F 38% 29.86 in 10.0 mi South 11.5 mph - N/A   Mostly Cloudy
7:53 PM 78.1 °F 53.1 °F 42% 29.86 in 10.0 mi SSE 11.5 mph - N/A   Mostly Cloudy
8:53 PM 75.0 °F 55.9 °F 51% 29.86 in 10.0 mi SE 9.2 mph - N/A   Mostly Cloudy
10:53 PM 72.0 °F 54.0 °F 53% 29.85 in 10.0 mi South 9.2 mph - N/A   Scattered Clouds
11:53 PM 72.0 °F 55.0 °F 55% 29.86 in 10.0 mi South 9.2 mph - N/A   Scattered Clouds